www.pogodaiklimat.ru

Погода и климат >> Архив погоды >> Ирак >> Haditha


ПОГОДА в Haditha

  • Прогноз погоды в Haditha
  • Монитор погоды в Haditha
  • Климат города

АРХИВ ПОГОДЫ в Haditha

Время (UTC), дата Ветер
(напр.,м/с)
 
Видим.   Явления Облачность Т
(С)
Тd
(С)
f
(%)
Тe
(С)
Тes
(С)
Комфортность P
(гПа)
Po
(гПа)
Тmin
(С)
Tmax
(С)
R
(мм)
R24
(мм)
S
(см)
12 18.02 З 1 10 км 5/5 900 м
[Cu Sc]
+16.2 +8.8 62 +17 +20 1004.7 1005.0
15 18.02 З 1 10 км 5/5 900 м
[Cu Sc]
+13.8 +8.6 71 +14 +14 1006.8 1007.0
18 18.02 З 3 10 км 3/0
[Ac und]
+11.5 +8.9 84 +10 +10 1006.9 1007.0 +16.4 0.1
21 18.02 З 2 10 км 3/0
[Ac lent]
+10.0 +7.0 82 +9 +9 1009.0 1009.0
00 19.02 З 2 10 км 3/0
[Ac lent]
+9.0 +6.8 86 +7 +7 1009.0 1009.0
06 19.02 З 5 10 км ясно +10.0 +6.5 79 +7 +9 1013.0 1013.0 +7.4
06 20.02 штиль 0 6000 м дымка 8/0
[Ac und]
+7.8 +6.5 91 +7 +10 1019.2 1019.0 +5.4
09 20.02 штиль 0 10 км 8/3 1200 м
[Cu med, cong Ac und]
+15.3 +9.5 68 +15 +21 1018.9 1019.0
12 20.02 С 2 10 км 9/6 1000 м
[Cu med, cong Ac und]
+15.3 +10.1 71 +15 +16 1016.8 1017.0
15 20.02 штиль 0 10 км 9/6 1000 м
[Cu med, cong Ac und]
+14.7 +10.9 78 +14 +14 1016.9 1017.0
18 20.02 В 2 10 км 8/8 1000 м
[Cu med, cong]
+13.5 +10.2 80 +13 +13 1016.9 1017.0 +15.6
03 21.02 штиль 0 10 км 4/4 1200 м
[Cu med, cong Ac und]
+8.4 +7.5 94 +7 +7 1015.2 1015.0
06 21.02 штиль 0 10 км слабый дождь 9/9 900 м
[Cu Sc]
+11.2 +9.0 86 +11 +11 1016.9 1017.0 +8.0
09 21.02 ЮВ 3 10 км 5/5 900 м
[Cu med, cong]
+16.6 +11.0 69 +16 +21 1014.8 1015.0
12 21.02 В 25 10 км 9/9 900 м
[Cu Sc]
+17.5 +10.3 63 +15 +15 1012.7 1013.0
15 21.02 В 20 10 км 8/8 960 м
[Cu Sc]
+15.4 +10.9 75 +14 +14 1012.8 1013.0
18 21.02 В 5 7000 м пыль 4/4 1000 м
[Cu med, cong Ac und]
+14.0 +11.1 83 +12 +12 1012.9 1013.0 +17.8 0.0
21 21.02 штиль 0 10 км 6/6 1000 м
[Cu med, cong]
+12.1 +9.5 84 +12 +12 1017.0 1017.0
03 22.02 З 4 10 км ясно +12.0 +9.6 85 +10 +10 1010.9 1011.0
06 22.02 З 2 10 км 3/0
[Ac lent]
+11.4 +9.4 88 +10 +14 1013.0 1013.0 +9.4
09 22.02 З 1 10 км 3/0
[Ac lent]
+16.6 +10.6 68 +17 +28 1012.8 1013.0
12 22.02 З 3 10 км 8/0
[Ac As]
+17.4 +11.5 68 +17 +19 1010.7 1011.0
18 22.02 З 2 10 км 3/0
[Ac trans]
+14.5 +10.1 75 +14 +14 1012.9 1013.0 +17.6
21 22.02 З 2 10 км 3/0
[Ac und]
+12.5 +8.4 76 +12 +12 1013.0 1013.0
00 23.02 штиль 0 10 км ясно +9.8 +8.1 89 +9 +9 1013.0 1013.0
06 23.02 СВ 2 8000 м дымка 4/0
[Ac trans]
+10.0 +7.0 82 +9 +12 1013.0 1013.0 +7.0
09 23.02 С 2 10 км 8/0
[Cs]
+16.2 +10.1 67 +16 +26 1012.8 1013.0
12 23.02 штиль 0 10 км 9/0
[Ac As]
+17.4 +11.1 66 +17 +20 1010.7 1011.0
15 23.02 штиль 0 8000 м слабый дождь 10/10 900 м
[Cu Sc]
+14.6 +11.2 80 +14 +14 1010.8 1011.0
21 23.02 штиль 0 10 км 10/10 900 м
[Cu Sc]
+10.0 +8.7 92 +9 +9 1011.0 1011.0
00 24.02 штиль 0 10 км 8/8 900 м
[Cu Sc]
+8.2 +5.5 83 +7 +7 1011.1 1011.0
06 24.02 штиль 0 10 км 8/8 900 м
[Cu Sc]
+12.8 +10.9 88 +12 +14 1010.9 1011.0 +5.0
09 24.02 З 2 10 км 6/6 900 м
[Cu med, cong]
+16.9 +10.5 66 +17 +22 1010.8 1011.0
12 24.02 З 2 10 км 6/6 900 м
[Cu med, cong]
+19.7 +9.3 51 +21 +24 комфорт 1008.6 1009.0
15 24.02 З 2 10 км 4/4 900 м
[Cu med, cong]
+17.6 +8.9 57 +18 +18 1008.6 1009.0
18 24.02 штиль 0 10 км 1/1 1200 м
[Cu hum]
+13.9 +10.2 78 +14 +14 1010.8 1011.0 +20.0
21 24.02 штиль 0 10 км ясно +12.0 +9.6 85 +11 +11 1010.9 1011.0
00 25.02 штиль 0 10 км ясно +9.3 +7.6 89 +8 +8 1011.0 1011.0
03 25.02 З 2 10 км 3/0
[Ac lent]
+9.0 +7.7 92 +7 +7 1011.0 1011.0

 

Местоположение метеостанции Haditha (Ирак): широта 34.07 долгота 42.37 высота над уровнем моря 140 м.

В архиве по умолчанию представлена погода в Haditha за последнюю неделю. Архивные данные за месяц целиком и за предыдущие месяцы, начиная с января 2011 года, Вы можете получить, выбрав интересующий диапазон дат из раскрывающегося списка и нажав кнопку "Ввод!".

Внимание! Время в таблицах - всемирное. Для получения местного времени необходимо прибавить поправку, которая в Haditha равна 3 ч.

Смотрите также архив погоды в соседних городах и на ближайших метеорологических станциях:

Погода в Ana (Ирак) (59 км)
Погода в Ramadi (Ирак) (112 км)
Погода в Al Qaim (Ирак) (129 км)
Погода в Tikrit (Ирак) (134 км)
Погода в Heet (Ирак) (137 км)
Погода в Abu Kamal (Сирия) (139 км)
Погода в Baiji (Ирак) (140 км)
Погода в Baghdad (Ирак) (196 км)
Погода в Al-Khalis (Ирак) (201 км)
Погода в Makhmoor (Ирак) (218 км)

Пояснения к столбцам:

Ветер - указаны скорость ветра в м/с - средняя за 10 мин, порывы в срок и между сроками (в фигурных скобках) и направление, откуда дует ветер: С - северный, СВ - северо-восточный, В - восточный, ЮВ - юго-восточный, Ю - южный, ЮЗ - юго-западный, З - западный, СЗ - северо-западный.
Видимость - горизонтальная дальность видимости в метрах или километрах. При видимости от 1 до 10 км при отсутствии осадков обычно наблюдается дымка, при ухудшении видимости до 1 км и менее - туман. В сухую погоду видимость может ухудшаться дымом, пылью или мглою.
Явления - указаны атмосферные явления, наблюдавшиеся в срок или в последний час перед сроком; фигурными скобками обозначены явления, наблюдавшиеся между сроками (за 1-3 часа до срока); квадратными скобками обозначены град или гололедные отложения с указанием их диаметра в мм.
Облачность - указаны через наклонную черту общая и нижняя облачность в баллах и высота нижней границы облаков в метрах; квадратными скобками обозначены формы облаков: Ci - перистые, Cs - перисто-слоистые, Cc - перисто-кучевые, Ac - высококучевые, As - высокослоистые, Sc - слоисто-кучевые, Ns - слоисто-дождевые, Cu - кучевые, Cb - кучево-дождевые. Подробнее классификацию облаков см. в Атласе облаков (PDF).
T - Температура воздуха - температура, измеренная на высоте 2 м над землей.
Td - Температура точки росы - температура, при понижении до которой содержащийся в воздухе водяной пар достигнет насыщения.
f - Относительная влажность воздуха - влажноcть воздуха, измеренная на высоте 2 м над землей.
Te - Эффективная температура - температура, которую ощущает одетый по сезону человек в тени. Характеристика душности погоды. При расчете учитывается влияние влажности воздуха и скорости ветра на теплоощущения человека.
Tes - Эффективная температура на солнце - температура, которую ощущает человек, с поправкой на солнечный нагрев. Характеристика знойности погоды. Зависит от высоты солнца над горизонтом, облачности и скорости ветра. Ночью, в пасмурную погоду, а также при ветре 12 м/с и более поправка равна нулю.
P - Атмосферное давление - приведенное к уровню моря атмосферное давление.
Po - Атмосферное давление - измеренное на уровне метеостанции атмосферное давление.
Tmin - Минимальная температура - минимум температуры воздуха на высоте 2 м над землей.
Tmax - Максимальная температура - максимум температуры воздуха на высоте 2 м над землей.
R - Количество осадков - Количество выпавших осадков за период времени, мм. При наведении курсора мыши на число - период времени, за который выпало указанное количество осадков.
R24 - Количество осадков - Количество выпавших осадков за 24 часа, мм.
S - Снежный покров - Высота снежного покрова, см. При наведении курсора мыши на число - состояние снежного покрова и степень покрытия местности в баллах.